Hourly Data Report for July 24, 2017

QUALICUM BEACH AIRPORT
BRITISH COLUMBIA

49°20'14.000" N
124°23'38.000" W
58.20 m
1026562
71766
VOQ

Download Data

Hourly Data (July 2017)
Hourly Data Report for July 24, 2017
TIME
LST
Temp Definition
°C
Dew Point Definition
°C
Rel Hum Definition
%
Precip. Amount Definition
mm

Wind Dir Definition
10's deg

Wind Spd Definition
km/h
Visibility Definition
km
Stn Press Definition
kPa
Hmdx Definition


Wind Chill Definition


Weather Definition


00:00 15.3 9.9 70 0.0 30 6   101.15     LegendNANA
01:00 16.2 9.9 66 0.0 31 11   101.16     LegendNANA
02:00 15.2 10.0 71 0.0 29 10   101.13     LegendNANA
03:00 13.8 9.5 75 0.0 27 6   101.14     LegendNANA
04:00 13.0 9.1 77 0.0 27 6   101.15     LegendNANA
05:00 13.3 9.1 76 0.0 27 6   101.16     LegendNANA
06:00 14.7 9.3 70 0.0 27 6   101.18     LegendNANA
07:00 16.0 10.3 69 0.0 30 12   101.19     LegendNANA
08:00 16.9 10.5 66 0.0 32 12   101.19     LegendNANA
09:00 17.1 10.7 66 0.0 29 13   101.18     LegendNANA
10:00 17.2 11.2 68 0.0 32 13   101.17     LegendNANA
11:00 19.3 12.0 63 0.0 33 15   101.15     LegendNANA
12:00 19.9 11.5 58 0.0 32 10   101.08     LegendNANA
13:00 19.5 11.6 60 0.0 34 13   101.05     LegendNANA
14:00 21.2 11.4 54 0.0 32 14   101.00     LegendNANA
15:00 22.1 11.2 50 0.0 31 13   100.94     LegendNANA
16:00 22.1 10.6 48 0.0 32 15   100.88     LegendNANA
17:00 23.2 9.5 42 0.0 31 13   100.85     LegendNANA
18:00 23.7 9.4 40 0.0 30 13   100.80 25   LegendNANA
19:00 23.8 8.6 38 0.0 31 13   100.79     LegendNANA
20:00 21.3 9.8 48 0.0 31 4   100.80     LegendNANA
21:00 19.8 10.5 55 0.0 29 6   100.84     LegendNANA
22:00 19.3 10.6 57 0.0 31 10   100.87     LegendNANA
23:00 18.4 11.2 63 0.0 29 8   100.89     LegendNANA

Notes on Data Quality.

Legend

  • E = Estimated
  • M = Missing
  • NA = Not Available*
  • [empty] = Indicates an unobserved value
Date modified: